Wind_Speed
6 5 4 4 4 4 2 2 2 3 2 2 3 4 4 4 4 5 5 5 4 4 3 3 2 3 3 3 2 2 1 1 1 1 1 2 3 3 3 2 2 2 3 3
7 6 6 6 6 4 3 3 3 3 2 2 2 3 3 4 4 4 4 5 5 5 4 3 3 2 2 3 3 2 2 3 2 3 3 3 3 4 3 3 4 4 4 4
9 10 9 8 7 5 4 4 4 3 3 2 2 3 3 4 3 3 4 5 5 5 4 3 3 3 4 4 4 4 4 4 4 4 5 5 5 5 5 5 5 4 5 5
11 11 10 9 7 6 6 6 5 4 3 2 2 3 4 5 4 4 5 5 5 5 5 4 4 4 5 5 6 6 6 5 5 6 6 6 7 7 7 6 6 6 6 6
12 11 10 10 9 8 8 7 6 5 4 3 3 3 4 5 5 5 6 6 6 6 6 6 6 6 7 7 7 7 7 7 7 7 8 8 8 8 9 8 8 8 8 8
12 12 11 11 10 9 8 6 6 6 5 6 6 5 6 7 7 6 7 7 7 7 7 8 8 8 9 9 9 9 9 9 9 10 10 10 11 11 11 11 11 11 11 11
13 12 12 11 10 10 8 6 5 6 6 8 9 8 8 8 9 8 8 8 8 8 9 10 10 10 11 11 11 11 11 11 11 12 12 12 12 12 12 13 13 14 14 14
13 13 13 12 11 11 10 9 8 8 8 9 10 10 10 10 10 10 10 9 9 9 10 11 11 12 12 13 13 13 13 13 13 14 14 15 14 14 15 15 14 15 16 16
14 15 14 14 14 13 13 12 11 11 11 10 11 12 11 11 11 11 11 11 11 11 12 12 12 13 13 14 14 14 15 16 16 15 16 17 16 16 17 17 17 16 17 18
16 16 16 16 15 16 16 15 14 12 12 11 12 14 14 13 14 13 13 13 14 14 14 14 14 15 16 15 15 15 16 17 17 18 17 18 18 18 18 18 19 18 19 20
18 17 17 17 17 16 16 16 15 15 15 13 13 15 17 16 16 15 15 15 16 16 16 16 17 17 17 17 17 17 18 18 18 19 19 19 19 19 19 19 19 20 20 22
18 18 18 18 18 18 18 17 17 17 17 16 15 16 18 17 17 17 17 17 17 18 18 19 18 18 18 18 18 18 19 19 20 20 20 20 21 21 21 21 21 21 22 23
19 19 18 17 19 19 20 19 18 18 18 18 16 17 19 19 18 18 18 18 19 19 20 20 20 20 20 20 20 20 20 21 21 22 22 21 22 22 23 23 23 23 24 25
21 20 19 19 19 20 21 21 21 19 19 19 18 18 19 20 19 18 19 19 20 20 20 21 20 20 20 21 20 20 21 21 22 22 23 23 23 23 23 24 25 25 26 27
22 22 21 22 22 22 22 22 22 22 21 21 20 20 21 21 21 20 20 21 22 22 21 21 21 21 22 21 21 22 23 23 24 24 24 25 25 25 25 25 26 26 27 28
23 24 23 23 23 23 23 23 23 23 24 24 23 23 22 23 23 23 23 24 23 23 23 23 23 23 24 24 24 25 25 26 26 26 26 26 26 26 27 28 28 29 28 29
25 24 24 23 24 24 24 24 23 24 25 25 25 24 24 24 24 24 25 25 25 24 25 24 24 24 25 25 26 26 27 28 28 28 29 29 28 28 29 29 30 30 31 31
26 25 25 24 25 25 24 25 24 25 25 25 26 26 26 25 25 25 25 25 25 26 26 26 26 26 26 26 27 27 28 29 30 30 30 30 30 30 30 30 31 31 32 32
27 26 25 25 25 25 26 25 25 25 25 25 26 25 25 25 26 26 26 26 27 27 27 27 27 27 26 27 27 28 28 29 30 31 31 31 31 31 31 31 31 31 32 32
26 26 26 26 25 25 26 26 25 25 26 25 25 25 26 26 27 27 26 27 27 28 28 28 28 28 27 27 28 28 29 30 31 31 31 32 31 31 32 31 31 32 33 33
26 25 25 26 25 26 26 25 24 25 25 25 24 25 25 26 27 27 27 27 28 28 28 29 29 29 29 29 28 29 29 30 31 31 31 32 32 31 31 32 32 32 33 33
26 25 26 26 26 27 26 25 25 25 25 25 25 25 26 26 27 27 28 28 28 28 29 29 30 29 30 30 30 29 29 30 31 31 31 31 31 32 32 32 32 33 33 33
27 26 26 27 27 27 26 26 25 25 25 25 25 25 25 25 26 27 28 28 28 29 29 29 30 30 30 30 30 30 30 31 32 32 32 31 32 33 32 32 32 33 33 33
27 27 27 27 27 27 27 26 26 25 25 25 25 24 24 25 26 27 27 28 28 28 29 30 31 31 31 31 31 31 30 30 31 31 31 31 31 31 31 32 32 32 32 33
27 26 26 27 27 27 27 27 26 26 25 24 24 24 25 25 26 26 26 27 27 28 29 30 31 31 31 30 31 30 30 30 30 30 31 31 32 32 32 32 32 31 31 32
27 27 26 27 27 26 26 26 26 26 26 25 25 25 25 25 25 26 27 28 28 29 29 30 30 30 30 30 30 31 31 31 30 30 30 31 31 31 31 31 31 31 31 31
Wind_Direction
213 211 213 221 222 228 241 262 295 308 338 18 28 27 33 31 22 22 12 5 2 4 7 11 9 13 12 11 8 12 358 354 4 5 340 327 331 335 340 339 336 325 317 318
221 229 231 235 232 233 251 275 283 290 301 346 18 12 10 20 13 13 8 2 352 349 350 348 346 346 344 347 343 331 316 309 299 303 319 320 325 325 324 325 320 315 307 307
227 234 237 238 237 240 264 270 265 265 276 311 346 353 344 356 352 348 350 352 348 344 345 343 337 331 326 329 330 318 304 299 288 288 297 305 311 308 305 308 305 303 300 302
230 234 236 240 242 243 258 261 254 256 268 305 322 334 322 333 335 337 335 335 335 329 325 319 313 309 306 310 317 315 308 301 293 290 293 295 298 301 302 301 296 296 297 297
234 238 241 244 243 244 249 254 250 250 257 275 295 299 307 317 318 321 324 328 323 319 315 307 303 299 297 297 302 306 307 302 295 294 293 296 295 294 295 294 292 292 292 294
234 240 244 245 247 247 249 255 258 258 265 272 274 277 287 299 302 304 310 315 319 318 311 304 300 298 298 296 296 298 297 295 293 291 291 290 291 292 292 290 289 289 289 289
237 242 245 248 247 250 252 259 270 272 271 270 271 273 276 285 291 293 300 307 310 315 310 302 298 297 297 295 294 292 293 291 292 291 291 290 288 289 294 294 289 288 289 289
236 244 245 246 249 252 255 252 245 251 260 271 278 276 281 285 288 289 292 298 302 308 310 306 300 293 293 293 292 291 290 290 292 294 292 289 288 287 288 288 291 290 287 287
234 242 247 247 249 251 253 250 251 258 263 266 270 277 282 282 285 288 291 292 295 298 303 303 300 297 295 295 297 293 295 293 291 293 292 288 290 286 285 285 286 289 289 287
236 243 250 250 252 251 250 252 256 259 260 266 273 280 283 285 285 286 288 290 292 293 296 297 297 297 295 295 296 297 296 296 292 291 293 295 294 291 287 287 285 288 290 290
238 244 250 253 254 256 255 254 257 262 261 263 269 271 280 285 285 284 285 287 289 290 291 293 294 296 296 295 295 296 297 298 294 293 295 297 296 296 295 291 291 291 292 293
240 243 249 256 256 255 258 258 260 263 267 266 266 273 277 280 282 281 281 283 285 286 288 291 292 294 295 296 295 295 297 297 295 293 293 294 294 293 293 290 290 291 293 293
246 246 253 260 261 258 258 260 261 262 265 267 268 272 277 278 280 279 279 281 283 283 285 288 290 292 295 295 294 296 297 297 297 294 290 291 291 291 291 290 288 289 291 292
246 247 249 250 254 262 263 262 261 264 266 269 272 272 273 275 278 279 280 281 282 283 283 287 288 290 293 294 294 295 295 295 295 295 293 291 290 291 291 290 288 288 288 288
246 249 251 251 254 259 262 263 264 264 265 267 270 272 272 274 275 278 279 280 282 282 283 284 285 287 289 292 293 293 292 292 292 292 292 292 290 289 290 289 289 289 288 286
250 254 256 256 257 259 262 263 263 264 266 268 271 273 272 271 273 275 278 280 281 281 281 281 282 283 284 287 288 290 292 291 290 290 290 290 289 289 289 288 287 286 286 286
252 256 258 261 260 261 263 263 264 265 267 269 270 273 272 272 272 273 275 278 279 279 279 278 279 281 283 284 285 287 289 290 289 288 288 289 288 287 287 286 286 285 286 285
254 257 259 261 263 264 265 265 265 265 266 267 268 270 272 273 273 272 274 277 278 279 279 278 278 280 281 282 283 284 287 288 288 288 288 288 288 288 287 286 286 285 286 286
254 256 258 261 264 267 266 266 266 267 267 268 270 271 272 271 272 272 273 275 276 277 278 279 279 279 281 281 283 285 287 287 287 286 286 287 288 288 287 287 288 287 286 286
254 255 257 259 262 266 269 269 268 269 269 269 270 272 273 272 271 271 273 275 276 277 278 278 280 281 282 283 284 285 287 287 286 286 287 288 287 287 288 288 288 287 287 286
253 254 256 260 262 266 269 270 269 268 269 270 271 272 272 272 272 274 275 276 276 278 279 280 281 284 285 285 285 286 286 287 288 287 287 288 287 288 289 289 288 287 287 286
253 256 257 259 261 264 268 269 267 268 269 268 269 270 272 272 273 275 276 277 277 279 280 281 283 286 286 286 286 286 287 289 289 288 287 287 287 288 289 288 288 288 288 286
253 254 257 259 262 266 268 269 268 268 268 268 268 270 273 275 274 275 277 278 278 280 281 282 283 284 285 285 286 287 288 290 290 289 288 287 287 289 290 290 290 290 290 289
254 255 257 260 263 265 267 267 267 267 269 270 269 270 273 275 276 275 277 278 278 279 281 282 282 283 284 285 287 288 289 291 291 290 288 287 287 289 290 291 291 292 292 290
254 257 258 261 263 265 265 266 267 268 268 268 268 270 273 276 278 278 278 279 280 281 282 283 283 284 285 286 287 288 290 290 290 289 288 290 290 292 291 291 292 293 292 291
255 257 258 259 261 262 264 265 267 267 267 269 269 270 274 277 279 281 281 281 282 282 284 284 284 284 284 285 286 287 289 289 290 290 289 291 291 292 292 292 292 293 293 292
Height
5927 5929 5930 5930 5931 5931 5931 5931 5931 5931 5930 5929 5928 5928 5927 5926 5924 5923 5922 5921 5920 5918 5917 5916 5915 5914 5914 5913 5913 5912 5912 5911 5910 5909 5908 5908 5907 5906 5905 5905 5904 5903 5903 5902
5927 5928 5929 5929 5929 5930 5930 5931 5931 5930 5930 5929 5929 5928 5927 5926 5925 5924 5923 5922 5920 5919 5918 5916 5916 5915 5914 5913 5913 5912 5911 5911 5910 5909 5908 5907 5907 5906 5905 5904 5904 5903 5902 5901
5925 5927 5926 5927 5928 5929 5930 5930 5930 5930 5929 5929 5929 5929 5928 5927 5926 5925 5923 5922 5921 5920 5918 5917 5916 5915 5914 5913 5912 5911 5911 5910 5909 5908 5908 5907 5906 5905 5904 5904 5903 5902 5901 5900
5923 5924 5925 5926 5927 5928 5929 5929 5929 5929 5929 5930 5930 5930 5928 5926 5926 5924 5923 5922 5921 5920 5918 5917 5916 5915 5914 5913 5912 5911 5910 5909 5908 5908 5907 5906 5905 5904 5903 5903 5902 5901 5900 5899
5921 5922 5923 5924 5925 5926 5927 5927 5928 5928 5928 5929 5929 5930 5929 5926 5925 5924 5923 5921 5920 5919 5918 5916 5915 5914 5914 5912 5911 5910 5909 5908 5908 5907 5906 5905 5904 5903 5902 5901 5900 5899 5898 5897
5919 5920 5921 5922 5923 5924 5925 5926 5927 5927 5928 5929 5928 5929 5928 5925 5924 5923 5922 5921 5920 5919 5917 5916 5914 5913 5912 5911 5910 5909 5908 5907 5906 5905 5904 5904 5903 5902 5901 5900 5899 5898 5896 5895
5917 5918 5919 5920 5921 5922 5923 5926 5928 5928 5929 5929 5927 5926 5926 5924 5923 5921 5920 5919 5918 5917 5916 5914 5913 5912 5911 5910 5909 5907 5906 5905 5904 5903 5902 5901 5900 5899 5898 5897 5896 5894 5893 5892
5916 5917 5917 5918 5919 5920 5921 5924 5926 5927 5928 5927 5924 5923 5923 5922 5920 5919 5918 5917 5916 5915 5914 5913 5911 5910 5909 5907 5906 5905 5904 5902 5901 5900 5899 5898 5897 5896 5894 5893 5892 5891 5889 5888
5913 5914 5914 5915 5916 5917 5918 5919 5921 5922 5923 5923 5923 5921 5920 5919 5918 5917 5916 5915 5914 5913 5912 5911 5909 5908 5906 5905 5903 5902 5900 5899 5898 5897 5896 5894 5893 5892 5891 5889 5888 5887 5885 5884
5909 5911 5911 5912 5913 5914 5915 5916 5917 5919 5919 5921 5921 5918 5917 5915 5915 5914 5913 5912 5911 5910 5909 5908 5906 5905 5903 5902 5900 5899 5897 5895 5894 5893 5891 5890 5889 5888 5886 5885 5884 5882 5881 5880
5905 5907 5908 5908 5909 5910 5911 5912 5913 5914 5915 5917 5918 5918 5913 5911 5911 5910 5909 5908 5907 5906 5905 5904 5903 5901 5900 5898 5897 5895 5893 5892 5890 5889 5887 5886 5885 5883 5882 5880 5879 5878 5876 5874
5901 5903 5904 5905 5905 5905 5906 5907 5908 5910 5910 5910 5911 5914 5908 5907 5906 5906 5905 5904 5903 5902 5901 5899 5898 5897 5896 5894 5892 5891 5889 5887 5886 5884 5883 5881 5880 5878 5877 5875 5874 5872 5871 5869
5897 5899 5900 5901 5902 5901 5901 5902 5903 5904 5905 5905 5907 5908 5903 5902 5901 5901 5900 5899 5898 5897 5896 5895 5894 5892 5891 5889 5888 5886 5884 5883 5881 5879 5877 5876 5874 5872 5871 5870 5868 5867 5865 5864
5892 5893 5896 5898 5897 5896 5896 5897 5897 5898 5899 5900 5900 5900 5898 5897 5896 5896 5895 5894 5893 5892 5891 5889 5888 5887 5886 5884 5882 5881 5879 5878 5876 5874 5872 5870 5869 5867 5865 5864 5862 5860 5859 5857
5886 5888 5889 5890 5890 5891 5891 5891 5892 5892 5893 5894 5894 5893 5892 5891 5891 5890 5889 5888 5887 5886 5885 5884 5882 5881 5880 5879 5877 5875 5874 5872 5870 5869 5867 5865 5863 5861 5860 5858 5856 5854 5852 5850
5880 5881 5883 5883 5884 5884 5885 5885 5886 5886 5886 5887 5886 5886 5886 5885 5884 5884 5883 5882 5881 5880 5879 5878 5876 5875 5874 5872 5871 5869 5867 5866 5864 5862 5860 5858 5856 5855 5853 5851 5849 5847 5845 5843
5874 5875 5877 5877 5877 5878 5879 5879 5879 5880 5880 5880 5880 5880 5879 5878 5877 5877 5876 5875 5874 5873 5872 5871 5870 5869 5867 5865 5864 5862 5860 5858 5857 5855 5853 5851 5849 5847 5846 5844 5841 5839 5837 5835
5868 5869 5870 5871 5872 5872 5874 5872 5872 5872 5872 5872 5872 5872 5871 5871 5870 5870 5869 5868 5867 5866 5865 5864 5863 5862 5860 5859 5857 5855 5853 5851 5849 5847 5845 5843 5841 5839 5837 5835 5833 5831 5828 5826
5860 5862 5863 5864 5864 5865 5866 5865 5865 5865 5865 5865 5864 5864 5863 5863 5863 5862 5862 5861 5860 5859 5858 5857 5855 5854 5853 5851 5850 5848 5846 5844 5842 5840 5838 5835 5833 5831 5829 5826 5824 5822 5820 5817
5853 5855 5856 5857 5857 5858 5859 5858 5858 5859 5857 5857 5857 5857 5856 5856 5856 5855 5854 5853 5852 5851 5850 5849 5848 5846 5845 5843 5842 5840 5838 5836 5834 5832 5829 5827 5825 5823 5820 5818 5816 5813 5811 5808
5846 5847 5848 5849 5850 5850 5850 5850 5851 5852 5851 5850 5849 5849 5849 5848 5848 5848 5846 5845 5844 5843 5842 5841 5840 5838 5837 5835 5834 5832 5830 5828 5826 5823 5821 5819 5816 5814 5812 5809 5806 5804 5801 5799
5839 5840 5841 5842 5843 5844 5843 5843 5844 5844 5843 5842 5842 5842 5841 5841 5840 5839 5839 5838 5837 5835 5834 5833 5831 5830 5828 5827 5825 5823 5821 5819 5817 5815 5812 5810 5807 5805 5803 5800 5797 5794 5792 5789
5831 5833 5834 5835 5837 5836 5835 5835 5835 5835 5835 5835 5834 5834 5834 5833 5832 5832 5831 5830 5828 5827 5826 5825 5823 5822 5820 5819 5817 5815 5813 5810 5808 5806 5804 5801 5799 5796 5794 5791 5788 5785 5783 5780
5823 5824 5826 5826 5827 5827 5827 5827 5827 5827 5827 5827 5827 5827 5826 5826 5825 5824 5823 5822 5821 5820 5818 5817 5815 5814 5812 5810 5808 5806 5804 5802 5799 5797 5795 5792 5789 5787 5784 5781 5779 5776 5773 5770
5816 5817 5818 5819 5819 5819 5819 5819 5819 5819 5819 5819 5819 5819 5819 5818 5818 5816 5815 5814 5813 5812 5810 5808 5807 5805 5803 5801 5800 5798 5796 5793 5791 5788 5786 5783 5780 5778 5775 5772 5769 5767 5764 5761
5808 5809 5810 5811 5811 5812 5811 5811 5811 5812 5812 5812 5812 5812 5811 5811 5810 5808 5807 5806 5805 5803 5802 5800 5798 5797 5795 5793 5791 5789 5787 5784 5782 5779 5777 5774 5771 5769 5766 5763 5760 5757 5754 5752